DW9497 Chester UK current weather conditions

sailwx.info

Wind from 337

Air temperature 11.7° C
Dewpoint 11.1° C

Last reported at 2019-Jun-19 00:02 UTC.
Time now 2019-Jun-19 00:43 UTC

Location: N 53°12' W 002°52'.
View on Google Maps.

See reports from other nearby stations

  
Tides and Currents Weather Stations Pressure Air Temp Water Temp Dewpoint Dewpoint Depression Visibility Wind Speed Wind Dir Waves Ship Positions
date/time (UTC)wind fromknots sea level pressurealtimeterstation pressurevisibilityair tempwater tempwave heightnotes
2019-Jun-19 00:02 337 11.7
2019-Jun-18 23:46 329 11.7
2019-Jun-18 23:31 329 11.7
2019-Jun-18 23:16 326 11.7
2019-Jun-18 23:01 324 12.2
2019-Jun-18 22:46 300 12.2
2019-Jun-18 22:31 322 12.2
2019-Jun-18 22:16 322 12.2
2019-Jun-18 22:01 322 12.2
2019-Jun-18 21:47 331 12.2
2019-Jun-18 21:31 318 12.2
2019-Jun-18 21:01 318 12.2
2019-Jun-18 20:46 334 12.2
2019-Jun-18 20:31 340 12.8
2019-Jun-18 20:16 318 12.8
2019-Jun-18 20:00 306 13.3
2019-Jun-18 19:46 305 13.9
2019-Jun-18 19:30 278 14.4
2019-Jun-18 19:15 097 15.0
2019-Jun-18 19:00 097 15.6
2019-Jun-18 18:45 294 16.1
2019-Jun-18 18:30 079 16.7
2019-Jun-18 18:15 079 17.2
2019-Jun-18 18:00 071 17.2
2019-Jun-18 17:45 058 17.2
2019-Jun-18 17:30 108 17.8
2019-Jun-18 17:15 019 17.8
2019-Jun-18 17:00 074 17.8
2019-Jun-18 16:45 106 17.8
2019-Jun-18 16:32 106 17.8
2019-Jun-18 16:16 345 17.8
2019-Jun-18 16:01 088 17.8
2019-Jun-18 15:46 341 0 gusting 1 17.8
2019-Jun-18 15:31 297 17.8
2019-Jun-18 15:01 300 17.2
2019-Jun-18 14:46 222 18.3
2019-Jun-18 14:31 243 18.3
2019-Jun-18 14:16 134 18.3
2019-Jun-18 14:02 316 17.8
2019-Jun-18 13:46 228 17.8
2019-Jun-18 13:31 290 17.8
2019-Jun-18 13:16 144 17.8
2019-Jun-18 13:02 231 17.8
2019-Jun-18 12:46 290 17.8
2019-Jun-18 12:31 246 17.8
2019-Jun-18 12:16 120 18.3
2019-Jun-18 12:01 065 18.3
2019-Jun-18 11:46 143 17.8
2019-Jun-18 11:31 236 17.8
2019-Jun-18 11:15 210 17.2
2019-Jun-18 11:00 089 17.2
2019-Jun-18 10:31 134 17.8
2019-Jun-18 10:16 078 17.8
2019-Jun-18 10:00 162 17.2
2019-Jun-18 09:45 285 16.7
2019-Jun-18 09:30 142 17.2
2019-Jun-18 09:15 303 17.2
2019-Jun-18 09:00 218 16.7
2019-Jun-18 08:45 332 16.7
2019-Jun-18 08:30 243 16.1
2019-Jun-17 20:46 233 13.9
2019-Jun-17 20:32 267 13.9
2019-Jun-17 20:16 288 14.4
2019-Jun-17 20:01 290 15.6
2019-Jun-17 19:47 284 0 gusting 3 16.1
2019-Jun-17 19:31 250 0 gusting 2 16.7
2019-Jun-17 19:17 214 16.1
2019-Jun-17 19:03 207 15.0
2019-Jun-17 18:48 240 0 gusting 3 15.0
2019-Jun-17 18:32 262 15.6